EW8588 Weather Reports


Display with metric or nautical units.
time (UTC)temp
F
wind
direction
speed
MPH
gust
MPH
rain 1hr
in
rain 24hr
in
rain mn
in
humidity
%
barometer
mb
20260504210021 78 200 3.0 6.0 0.00 0.00 0.00 64 1011.1
20260504204513 78 158 1.0 5.0 0.00 0.00 0.00 65 1011.2
20260504203011 79 134 2.0 7.0 0.00 0.00 0.00 61 1011.4
20260504201513 80 158 1.0 5.0 0.00 0.00 0.00 60 1011.5
20260504200010 80 278 0.0 5.0 0.00 0.00 0.00 59 1011.8
20260504194507 80 182 2.0 5.0 0.00 0.00 0.00 61 1011.8
20260504193007 81 132 0.0 7.0 0.00 0.00 0.00 61 1012.2
20260504191506 81 120 0.0 6.0 0.00 0.00 0.00 59 1012.3
20260504190004 81 168 1.0 5.0 0.00 0.00 0.00 57 1012.4
20260504184502 81 110 1.0 5.0 0.00 0.00 0.00 57 1012.3
20260504183107 81 120 1.0 5.0 0.00 0.00 0.00 56 1012.5
20260504181600 80 251 1.0 5.0 0.00 0.00 0.00 62 1012.9
20260504180111 80 214 2.0 8.0 0.00 0.00 0.00 58 1013.0
20260504174555 80 176 2.0 7.0 0.00 0.00 0.00 56 1013.1
20260504173053 80 148 1.0 5.0 0.00 0.00 0.00 57 1013.4
20260504171550 79 153 3.0 8.0 0.00 0.00 0.00 58 1013.5
20260504081539 60 177 0.0 0.0 0.00 0.00 0.00 79 1014.7
20260504080137 60 176 0.0 0.0 0.00 0.00 0.00 79 1015.1
20260504050016 59 168 0.0 0.0 0.00 0.00 0.00 78 1016.7
20260504044515 60 168 0.0 0.0 0.00 0.00 0.00 77 1016.9
20260504043017 60 168 0.0 0.0 0.00 0.00 0.00 75 1017.0
20260504041514 61 168 0.0 0.0 0.00 0.00 0.00 74 1016.8
20260504040017 62 168 0.0 0.0 0.00 0.00 0.00 70 1016.8
20260504034514 63 168 0.0 0.0 0.00 0.00 0.00 70 1017.0
20260504033013 64 168 0.0 0.0 0.00 0.00 0.00 68 1016.9
20260504031512 64 170 0.0 0.0 0.00 0.00 0.00 66 1016.8
20260504030013 64 100 0.0 0.0 0.00 0.00 0.00 66 1016.7
20260504024513 65 74 0.0 0.0 0.00 0.00 0.00 65 1016.8
20260504023012 65 72 0.0 0.0 0.00 0.00 0.00 64 1016.8
20260504021511 65 71 0.0 0.0 0.00 0.00 0.00 63 1016.8
20260504020013 66 82 0.0 1.0 0.00 0.00 0.00 61 1016.7
20260504014511 67 132 0.0 2.0 0.00 0.00 0.00 60 1016.7
20260504013017 68 166 0.0 1.0 0.00 0.00 0.00 59 1016.8
20260504011509 69 139 0.0 0.0 0.00 0.00 0.00 56 1016.6
20260504010009 69 167 0.0 3.0 0.00 0.00 0.00 54 1016.6
20260504004510 70 186 0.0 2.0 0.00 0.00 0.00 52 1016.5
20260504003008 71 203 0.0 4.0 0.00 0.00 0.00 51 1016.5
20260504001508 72 185 1.0 4.0 0.00 0.00 0.00 50 1016.6
20260504000017 72 119 1.0 5.0 0.00 0.00 0.00 47 1016.6
20260503234505 73 148 1.0 4.0 0.00 0.00 0.00 46 1016.7
20260503233008 73 107 0.0 5.0 0.00 0.00 0.00 46 1016.9
20260503231503 74 135 1.0 5.0 0.00 0.00 0.00 47 1016.9
20260503230002 74 200 2.0 5.0 0.00 0.00 0.00 44 1017.0
20260503224502 75 131 1.0 5.0 0.00 0.00 0.00 44 1017.0
20260503223100 75 94 1.0 5.0 0.00 0.00 0.00 42 1017.3
20260503221601 75 162 2.0 4.0 0.00 0.00 0.00 41 1017.2
20260503220059 75 134 1.0 5.0 0.00 0.00 0.00 45 1017.3
20260503214556 76 120 1.0 5.0 0.00 0.00 0.00 42 1017.5
20260503213057 76 190 1.0 4.0 0.00 0.00 0.00 40 1017.7
20260503211606 76 156 0.0 4.0 0.00 0.00 0.00 40 1017.8